BAW801 LIML-EGLC

Flight info

Callsign BAW801
Flight time N/A
Altitude 39000
Route PEPAG DCT ABESI N851 UTAVO DCT ELMUR DCT RIPUS L613 HOC DCT LUL DCT RLP DCT ROTSI DCT KOTUN DCT NURMO DCT VESAN DCT RATUK L613 SOVAT
Aircraft A20N/M-SDE2E3FGHIRWXY/LB1

Departure

Time 2026-05-07 09:43
Airport Milano Linate Airport (LIML)

Arrival

Time N/A
Airport London City Airport (EGLC)
Time Latitude Longitude Altitude Speed Heading
2026-05-07 09:38 45.45511 9.27880 365 ft 0 kts 91°
2026-05-07 09:41 45.45511 9.27874 370 ft 3 kts 91°
2026-05-07 09:41 45.45511 9.27847 365 ft 3 kts 91°
2026-05-07 09:41 45.45517 9.27824 365 ft 2 kts 156°
2026-05-07 09:41 45.45522 9.27821 365 ft 0 kts 181°
2026-05-07 09:42 45.45514 9.27819 365 ft 5 kts 195°
2026-05-07 09:42 45.45406 9.27729 367 ft 30 kts 207°
2026-05-07 09:42 45.45204 9.27635 361 ft 32 kts 180°
2026-05-07 09:43 45.44857 9.27677 366 ft 94 kts 171°
2026-05-07 09:43 45.43890 9.27611 626 ft 171 kts 200°
2026-05-07 09:43 45.43081 9.26260 1463 ft 206 kts 255°
2026-05-07 09:43 45.43286 9.24109 2420 ft 235 kts 301°
2026-05-07 09:44 45.44382 9.22432 4195 ft 231 kts 312°
2026-05-07 09:44 45.45501 9.20680 5511 ft 249 kts 313°
2026-05-07 09:44 45.46732 9.18844 6854 ft 261 kts 313°
2026-05-07 09:44 45.48005 9.16948 8351 ft 268 kts 313°
2026-05-07 09:45 45.49292 9.15027 9893 ft 274 kts 313°
2026-05-07 09:45 45.50650 9.12992 11063 ft 294 kts 312°
2026-05-07 09:45 45.52144 9.10739 11724 ft 330 kts 312°
2026-05-07 09:45 45.53801 9.08235 12424 ft 360 kts 312°
2026-05-07 09:46 45.55557 9.05581 13526 ft 374 kts 312°
2026-05-07 09:46 45.57363 9.02853 14682 ft 382 kts 312°
2026-05-07 09:46 45.59205 9.00071 15845 ft 388 kts 312°
2026-05-07 09:46 45.61067 8.97255 16998 ft 393 kts 312°
2026-05-07 09:47 45.62928 8.94435 18102 ft 398 kts 311°
2026-05-07 09:47 45.64841 8.91535 19022 ft 403 kts 311°
2026-05-07 09:47 45.66777 8.88593 19902 ft 409 kts 311°
2026-05-07 09:47 45.68742 8.85605 20772 ft 413 kts 312°
2026-05-07 09:48 45.70726 8.82586 21622 ft 418 kts 312°
2026-05-07 09:48 45.72724 8.79540 22445 ft 422 kts 312°
2026-05-07 09:48 45.74750 8.76449 23251 ft 427 kts 312°
2026-05-07 09:48 45.76769 8.73365 23947 ft 431 kts 312°
2026-05-07 09:49 45.78833 8.70208 24584 ft 435 kts 312°
2026-05-07 09:49 45.80914 8.67021 25107 ft 441 kts 311°
2026-05-07 09:49 45.83039 8.63762 25393 ft 453 kts 312°
2026-05-07 09:49 45.85214 8.60421 25781 ft 461 kts 312°
2026-05-07 09:50 45.87415 8.57038 26334 ft 465 kts 312°
2026-05-07 09:50 45.89596 8.53685 27096 ft 463 kts 312°
2026-05-07 09:50 45.91794 8.50301 27932 ft 460 kts 311°
2026-05-07 09:50 45.93969 8.46949 28737 ft 457 kts 311°
2026-05-07 09:51 45.96137 8.43602 29519 ft 456 kts 311°
2026-05-07 09:51 45.98295 8.40265 30296 ft 453 kts 311°
2026-05-07 09:51 46.00438 8.36948 30921 ft 451 kts 311°
2026-05-07 09:51 46.02546 8.33679 31517 ft 449 kts 310°
2026-05-07 09:52 46.04674 8.30376 32161 ft 447 kts 310°
2026-05-07 09:52 46.06786 8.27094 32799 ft 446 kts 310°
2026-05-07 09:52 46.08893 8.23814 33358 ft 446 kts 310°
2026-05-07 09:52 46.11002 8.20528 33901 ft 445 kts 310°
2026-05-07 09:53 46.13101 8.17254 34393 ft 444 kts 310°
2026-05-07 09:53 46.15167 8.14029 34802 ft 444 kts 310°
2026-05-07 09:53 46.17272 8.10736 35218 ft 445 kts 309°
2026-05-07 09:53 46.19375 8.07444 35626 ft 445 kts 309°
2026-05-07 09:54 46.21476 8.04151 36032 ft 446 kts 309°
2026-05-07 09:54 46.23580 8.00848 36432 ft 446 kts 309°
2026-05-07 09:54 46.25688 7.97537 36830 ft 447 kts 309°
2026-05-07 09:54 46.27792 7.94227 37232 ft 448 kts 309°
2026-05-07 09:55 46.29878 7.90942 37625 ft 448 kts 309°
2026-05-07 09:55 46.31995 7.87603 37898 ft 451 kts 309°
2026-05-07 09:55 46.34126 7.84238 38225 ft 453 kts 309°
2026-05-07 09:55 46.36258 7.80869 38588 ft 454 kts 309°
2026-05-07 09:56 46.38393 7.77490 38906 ft 454 kts 309°
2026-05-07 09:56 46.40493 7.74164 39063 ft 452 kts 309°
2026-05-07 09:56 46.42613 7.70802 39038 ft 452 kts 309°
2026-05-07 09:57 46.46871 7.64032 39028 ft 453 kts 309°
2026-05-07 09:57 46.51121 7.57260 39023 ft 453 kts 309°
2026-05-07 09:58 46.55339 7.50522 39025 ft 454 kts 309°
2026-05-07 09:58 46.59591 7.43712 39024 ft 454 kts 309°
2026-05-07 09:59 46.63842 7.36886 39021 ft 454 kts 309°
2026-05-07 09:59 46.68053 7.30109 39030 ft 454 kts 309°
2026-05-07 10:00 46.71588 7.24407 39026 ft 453 kts 309°
2026-05-07 10:00 46.76500 7.16463 39027 ft 453 kts 309°
2026-05-07 10:01 46.80721 7.09615 39024 ft 454 kts 309°
2026-05-07 10:01 46.84240 7.03895 39021 ft 454 kts 309°
2026-05-07 10:02 46.88462 6.97016 39020 ft 454 kts 309°
2026-05-07 10:02 46.92681 6.90124 39020 ft 454 kts 309°
2026-05-07 10:03 46.96897 6.83219 39023 ft 454 kts 309°
2026-05-07 10:03 47.01082 6.76348 39021 ft 454 kts 309°
2026-05-07 10:04 47.05292 6.69417 39019 ft 455 kts 309°
2026-05-07 10:04 47.09504 6.62464 39023 ft 455 kts 309°
2026-05-07 10:05 47.13699 6.55523 39054 ft 454 kts 309°
2026-05-07 10:05 47.17873 6.48599 39053 ft 454 kts 309°
2026-05-07 10:06 47.22069 6.41620 39057 ft 454 kts 309°
2026-05-07 10:06 47.26235 6.34671 39056 ft 455 kts 309°
2026-05-07 10:07 47.30421 6.27674 39055 ft 455 kts 309°
2026-05-07 10:07 47.34608 6.20656 39055 ft 455 kts 309°
2026-05-07 10:08 47.38781 6.13644 39051 ft 454 kts 309°
2026-05-07 10:08 47.42924 6.06662 39053 ft 454 kts 309°
2026-05-07 10:09 47.47086 5.99631 39051 ft 454 kts 309°